Terminal Aerodrome Forecast
Issued by NWS

Home | Current Version | Previous Version | Text Only | Print | Product List | Glossary On
Versions: 1 2 3 4 5 6 7 8 9 10 11 12 13
000
FTUS45 KTFX 211342 AAA
TAFHVR
TAF AMD
KHVR 211342Z 2114/2212 VRB03KT P6SM VCFG FEW010 SCT200
      TEMPO 2114/2117 SCT002
     FM211700 25008KT P6SM SCT100 BKN200
     FM221000 26005KT P6SM VCFG FEW010 SCT050=

USA.gov is the U.S. government's official web portal to all federal, state and local government web resources and services.